N448KC KSGR-KNEW

Flight info

Callsign N448KC
Flight time N/A
Altitude 35000
Route MMALT7 LLA AWDAD AWDAD1
Aircraft C680/M-SDFGHRWY/SB1

Departure

Time 2026-05-08 00:24
Airport Sugar Land Regional Airport (KSGR)

Arrival

Time N/A
Airport Lakefront Airport (KNEW)
Time Latitude Longitude Altitude Speed Heading
2026-05-08 00:03 29.62738 -95.65385 87 ft 0 kts 355°
2026-05-08 00:18 29.62754 -95.65412 91 ft 11 kts 268°
2026-05-08 00:19 29.62735 -95.65452 90 ft 10 kts 230°
2026-05-08 00:19 29.62734 -95.65453 90 ft 10 kts 230°
2026-05-08 00:19 29.62687 -95.65520 89 ft 6 kts 236°
2026-05-08 00:19 29.62656 -95.65561 87 ft 9 kts 203°
2026-05-08 00:20 29.62572 -95.65560 87 ft 15 kts 175°
2026-05-08 00:20 29.62557 -95.65559 87 ft 16 kts 174°
2026-05-08 00:20 29.62487 -95.65552 89 ft 19 kts 174°
2026-05-08 00:20 29.62335 -95.65539 89 ft 25 kts 176°
2026-05-08 00:21 29.62148 -95.65522 89 ft 29 kts 174°
2026-05-08 00:21 29.61939 -95.65502 88 ft 26 kts 176°
2026-05-08 00:21 29.61756 -95.65485 88 ft 28 kts 175°
2026-05-08 00:21 29.61541 -95.65463 88 ft 31 kts 175°
2026-05-08 00:22 29.61458 -95.65455 89 ft 12 kts 174°
2026-05-08 00:22 29.61356 -95.65446 87 ft 17 kts 175°
2026-05-08 00:22 29.61257 -95.65437 87 ft 10 kts 174°
2026-05-08 00:22 29.61187 -95.65464 90 ft 14 kts 234°
2026-05-08 00:23 29.61201 -95.65558 87 ft 10 kts 354°
2026-05-08 00:23 29.61239 -95.65561 87 ft 24 kts 356°
2026-05-08 00:23 29.61752 -95.65610 101 ft 122 kts 356°
2026-05-08 00:23 29.62777 -95.65712 674 ft 173 kts 355°
2026-05-08 00:24 29.64131 -95.65822 1569 ft 216 kts 358°
2026-05-08 00:24 29.65681 -95.65963 3165 ft 222 kts 358°
2026-05-08 00:24 29.67329 -95.66132 4524 ft 249 kts 356°
2026-05-08 00:24 29.69132 -95.66072 5608 ft 272 kts 15°
2026-05-08 00:25 29.70686 -95.64893 7074 ft 274 kts 50°
2026-05-08 00:25 29.71480 -95.62867 8357 ft 284 kts 82°
2026-05-08 00:25 29.71295 -95.60618 9695 ft 290 kts 105°
2026-05-08 00:25 29.70743 -95.58323 10897 ft 300 kts 107°
2026-05-08 00:26 29.70580 -95.57604 11246 ft 304 kts 105°
2026-05-08 00:26 29.70223 -95.55188 12364 ft 315 kts 97°
2026-05-08 00:26 29.70236 -95.52607 13490 ft 328 kts 88°
2026-05-08 00:26 29.70424 -95.49964 14496 ft 340 kts 87°
2026-05-08 00:27 29.70575 -95.47198 15494 ft 349 kts 91°
2026-05-08 00:27 29.70583 -95.44407 16463 ft 358 kts 94°
2026-05-08 00:27 29.70571 -95.41491 17445 ft 368 kts 93°
2026-05-08 00:27 29.70633 -95.38567 18386 ft 377 kts 91°
2026-05-08 00:28 29.70725 -95.35500 19264 ft 384 kts 91°
2026-05-08 00:28 29.70780 -95.32412 20140 ft 389 kts 92°
2026-05-08 00:28 29.70812 -95.29287 20982 ft 395 kts 92°
2026-05-08 00:28 29.70861 -95.26103 21844 ft 400 kts 91°
2026-05-08 00:29 29.70926 -95.22861 22697 ft 406 kts 91°
2026-05-08 00:29 29.70983 -95.19627 23524 ft 411 kts 91°
2026-05-08 00:29 29.71031 -95.16295 24164 ft 416 kts 91°
2026-05-08 00:29 29.71080 -95.12965 24793 ft 422 kts 91°
2026-05-08 00:30 29.71131 -95.09826 25362 ft 427 kts 91°
2026-05-08 00:30 29.71186 -95.06397 25964 ft 432 kts 91°
2026-05-08 00:30 29.71237 -95.02902 26560 ft 438 kts 92°
2026-05-08 00:30 29.71287 -94.99412 27123 ft 443 kts 92°